Regional Weather Roundup
Issued by NWS

Home | Current Version | Previous Version | Text Only | Print | Product List | Glossary Off
Versions: 1 2 3 4 5 6 7 8 9 10 11 12 13 14 15 16 17 18 19 20 21 22 23 24 25 26 27 28 29 30 31 32 33 34 35 36 37 38 39 40 41 42 43 44 45 46 47 48 49 50

000
ASUS45 KCYS 300610
RWRWY

WYOMING REGIONAL WEATHER ROUNDUP
NATIONAL WEATHER SERVICE CHEYENNE WY
1200 AM MDT WED JUL 30 2014

NOTE:  "FAIR" INDICATES FEW OR NO CLOUDS BELOW 12,000 FEET
WITH NO SIGNIFICANT WEATHER AND/OR OBSTRUCTIONS TO VISIBILITY.

WYZ001-300700-
YELLOWSTONE NATIONAL PARK

CITY           SKY/WX    TMP DP  RH WIND       PRES   REMARKS
LK YELLOWSTONE   N/A     45  43  93 NW5       30.47S
6HR MIN TEMP:  44; 6HR MAX TEMP:  55;

W YELLOWSTONE  NOT AVBL

$$
WYZ002>013-054>058-071-098>099-300700-
NORTHERN WYOMING

CITY           SKY/WX    TMP DP  RH WIND       PRES   REMARKS
JACKSON        MOCLDY    54  52  94 N9        30.36S
CODY           NOT AVBL
GREYBULL       PTCLDY    63  54  72 E5        30.26R
6HR MIN TEMP:  63; 6HR MAX TEMP:  73;

WORLAND        MOCLDY    60  57  89 CALM      30.26F
6HR MIN TEMP:  60; 6HR MAX TEMP:  68;

SHERIDAN       PTCLDY    57  48  72 SW3       30.24R
6HR MIN TEMP:  55; 6HR MAX TEMP:  78;

BUFFALO        PTCLDY    57  43  59 W5        30.30S
6HR MIN TEMP:  56; 6HR MAX TEMP:  70;

GILLETTE       CLEAR     60  55  83 SW12      30.27R
6HR MIN TEMP:  60; 6HR MAX TEMP:  70;

HULETT         FAIR      61  54  77 MISG      30.26
NEWCASTLE      MOCLDY    57  54  88 E5        30.29

$$
WYZ014>020-022>026-101>103-300700-
CENTRAL WYOMING

CITY           SKY/WX    TMP DP  RH WIND       PRES   REMARKS
BIG PINEY      LGT RAIN  55  53  93 S5        30.38S
6HR MIN TEMP:  55; 6HR MAX TEMP:  59; 6HR PCP:  0.05;

PINEDALE       CLOUDY    54  50  87 NW5       30.39R
DUBOIS         FAIR      52  46  82 SW7       30.41S
LANDER         CLOUDY    59  55  87 SW5       30.32F
6HR MIN TEMP:  58; 6HR MAX TEMP:  61; 6HR PCP:  0.10;

RIVERTON       CLOUDY    59  57  93 E6        30.34S
6HR MIN TEMP:  59; 6HR MAX TEMP:  60; 6HR PCP:  0.01;

CASPER         CLOUDY    57  54  89 NE3       30.32S
6HR MIN TEMP:  57; 6HR MAX TEMP:  62; 6HR PCP:  0.06;

DOUGLAS        CLOUDY    58  54  86 S6        30.33R
6HR MIN TEMP:  57; 6HR MAX TEMP:  63; 6HR PCP:  0.17;


$$
WYZ021-027>030-104>119-300700-
SOUTHERN WYOMING

CITY           SKY/WX    TMP DP  RH WIND       PRES   REMARKS
EVANSTON       CLOUDY    56  54  93 E16       30.34S
6HR MIN TEMP:  56; 6HR MAX TEMP:  63; 6HR PCP: TRACE;

KEMMERER       DRIZZLE   54  52  94 NE14      30.38S
FORT BRIDGER   CLOUDY    56  56 100 NE9       30.38S
ROCK SPRINGS   CLOUDY    56  52  86 E13       30.35S
6HR MIN TEMP:  56; 6HR MAX TEMP:  58; 6HR PCP: TRACE;

DIXON          MOCLDY    59  57  92 NE5       30.31F
RAWLINS        LGT RAIN  54  52  93 E16       30.35S
6HR MIN TEMP:  54; 6HR MAX TEMP:  58; 6HR PCP:  0.01;

SARATOGA       DRIZZLE   55  54  94 E5        30.35S
LARAMIE        LGT RAIN  54  51  90 E6        30.37S
6HR MIN TEMP:  53; 6HR MAX TEMP:  56; 6HR PCP:  0.30;

CHEYENNE       LGT RAIN  57  56  96 NE8       30.33S
6HR MIN TEMP:  56; 6HR MAX TEMP:  59; 6HR PCP:  0.54;

TORRINGTON     CLOUDY    63  61  93 W3        30.26S
6HR MIN TEMP:  62; 6HR MAX TEMP:  74; 6HR PCP:  0.16;

PINE BLUFFS    LGT RAIN  57  55  94 NE8       30.31R

$$



USA.gov is the U.S. government's official web portal to all federal, state and local government web resources and services.